[[{"header":{"parameterUnit":"m.s-1","parameterCategory":1,"la1":30.2991,"la2":30.254,"lo1":-89.0895,"lo2":-89.0444,"dx":0.0017,"dy":0.0017,"nx":28,"ny":28,"refTime":"2022-12-29T15:00:00:Z","depth":0,"parameterNumber":2,"parameterNumberName":"U-component_of_WINDS"},"data":[0,0,0,0,0,0,0,0,0,0,0,0,0,0,0,0,0,0,0,0,0,0,0,0,0,0,0,0,0,0,0,0,0,0,0,0,0,0,0,0,0,0,0,0,0,0,0,0,0,0,0,0,0,0,0,0,0,0,-3.8335,-3.8336,0,-3.843,-3.8431,-3.8432,-3.8414,-3.8412,-3.841,-3.8409,-3.8505,-3.8509,-3.8513,0,0,0,0,0,0,0,0,0,0,0,0,0,-3.8139,-3.8143,-3.8335,-3.8336,-3.8337,-3.843,-3.8431,-3.8432,-3.8414,-3.8412,-3.841,-3.8408,-3.8504,-3.8509,-3.8514,0,0,0,0,0,0,0,0,0,0,0,0,0,-3.8228,-3.8144,-3.8335,-3.8339,-3.8341,-3.8429,-3.8431,-3.8433,-3.8414,-3.8412,-3.8409,-3.8407,-3.8502,-3.8508,-3.8515,-3.8605,0,0,-3.8534,-3.8536,0,0,0,0,0,0,0,0,-3.8223,-3.8235,-3.8337,-3.8339,-3.8341,-3.8407,-3.8397,-3.849,-3.8415,-3.8386,-3.8409,-3.8406,-3.8475,-3.8483,-3.8507,-3.8609,-3.8613,-3.8534,-3.8538,-3.8541,-3.8542,0,0,0,0,0,0,0,-3.8217,-3.8231,-3.8372,-3.8339,-3.8341,-3.8337,-3.8347,-3.8415,-3.8444,-3.8389,-3.8388,-3.8399,-3.8475,-3.8501,-3.8509,-3.8615,-3.8534,-3.854,-3.8543,-3.8546,-3.8796,-3.8799,0,0,0,0,0,0,-3.8209,-3.8226,-3.8369,-3.8375,-3.8274,-3.8343,-3.8353,-3.8389,-3.8443,-3.8449,-3.8401,-3.8398,-3.8491,-3.8501,-3.8512,-3.862,-3.8541,-3.8547,-3.855,-3.8793,-3.8797,-3.88,0,0,0,0,0,0,-3.8205,-3.8222,-3.8366,-3.83,-3.8318,-3.8349,-3.8388,-3.8392,-3.8417,-3.8452,-3.8458,-3.8422,-3.8489,-3.8503,-3.8582,-3.8624,-3.8549,-3.8555,-3.879,-3.8795,-3.8799,-3.8838,0,0,0,0,0,0,-3.8199,-3.8221,-3.8255,-3.8301,-3.8322,-3.8434,-3.8391,-3.8395,-3.8428,-3.8424,-3.8473,-3.8479,-3.8489,-3.8573,-3.8588,-3.8631,-3.856,-3.8786,-3.8792,-3.8797,-3.8833,-3.8843,-3.8852,0,0,0,0,0,-3.8192,-3.8262,-3.8256,-3.8274,-3.8365,-3.8436,-3.8448,-3.8458,-3.8431,-3.8466,-3.8489,-3.8477,-3.8617,-3.8581,-3.8598,-3.8643,-3.8784,-3.879,-3.8797,-3.8829,-3.8841,-3.8852,0,0,0,0,0,0,-3.8218,-3.8268,-3.8262,-3.8349,-3.8389,-3.8433,-3.8476,-3.8471,-3.8518,-3.8513,-3.8524,-3.8535,-3.8615,-3.8637,-3.8596,-3.8734,-3.8697,-3.8707,-3.8715,-3.8727,-3.8737,-3.8728,-3.8565,0,0,0,0,0,-3.8235,-3.8288,-3.8328,-3.8401,-3.8421,-3.8446,-3.8477,-3.8482,-3.8523,-3.8539,-3.8568,-3.8608,-3.8662,-3.8696,-3.8747,-3.8838,-3.8848,-3.8878,-3.8887,-3.8894,-3.8902,-3.8952,-3.8965,-3.8822,-3.8822,-3.8821,0,0,-3.8268,-3.8301,-3.8334,-3.8407,-3.8438,-3.8493,-3.846,-3.8519,-3.856,-3.8548,-3.8624,-3.8647,-3.8693,-3.8778,-3.8817,-3.8799,-3.8945,-3.8903,-3.8908,-3.8912,-3.896,-3.8974,-3.8986,-3.8826,-3.8825,-3.8824,0,0,-3.8356,-3.8387,-3.8451,-3.8483,-3.8531,-3.8547,-3.8563,-3.8609,-3.8623,-3.87,-3.8692,-3.8742,-3.8833,-3.8866,-3.8895,-3.8999,-3.8989,-3.9015,-3.9063,-3.9111,-3.9123,-3.9133,-3.9169,-3.9182,-3.9024,-3.9024,-3.9024,0,-3.8391,-3.8473,-3.8484,-3.8545,-3.8577,-3.8571,-3.8635,-3.8666,-3.8728,-3.8751,-3.8731,-3.8846,-3.8876,-3.8969,-3.8994,-3.9018,-3.9036,-3.9008,-3.912,-3.913,-3.914,-3.9174,-3.9188,-3.9026,-3.9026,-3.9026,-3.9026,0,-3.8513,-3.8571,-3.8617,-3.8677,-3.8715,-3.8778,-3.8799,-3.8836,-3.8838,-3.8857,-3.8935,-3.8972,-3.9031,-3.9054,-3.9056,-3.9147,-3.9134,-3.9118,-3.908,-3.9156,-3.9189,-3.9202,-3.903,-3.9029,-3.9029,-3.9028,0,0,-3.8617,-3.8685,-3.8702,-3.8729,-3.8783,-3.8828,-3.8891,-3.8948,-3.8979,-3.9024,-3.9076,-3.9155,-3.914,-3.9173,-3.9179,-3.9222,-3.9301,-3.92,-3.9201,-3.9216,-3.9403,-3.9413,-3.9429,-3.9296,-3.9299,-3.9301,-3.9398,0,-3.8709,-3.882,-3.8833,-3.8931,-3.8984,-3.898,-3.9035,-3.9074,-3.9094,-3.9142,-3.9164,-3.9219,-3.9196,-3.9216,-3.9258,-3.9282,-3.9338,-3.9276,-3.9344,-3.9347,-3.9331,-3.9446,-3.9457,-3.9547,-3.9411,-3.9413,-3.9415,0,-3.883,-3.8878,-3.8982,-3.9029,-3.9052,-3.9101,-3.9155,-3.9202,-3.9246,-3.9258,-3.9296,-3.9298,-3.9363,-3.9325,-3.9415,-3.9373,-3.9402,-3.9419,-3.9422,-3.9427,-3.9384,-3.9452,-3.9576,-3.9589,-3.9435,-3.9434,-3.9432,0,-3.8894,-3.8985,-3.9058,-3.9082,-3.914,-3.9174,-3.92,-3.9242,-3.9276,-3.9324,-3.9346,-3.9402,-3.9431,-3.9474,-3.9491,-3.9462,-3.958,-3.9544,-3.9591,-3.959,-3.9613,-3.9611,-3.9742,-3.9636,-3.9636,-3.9636,-3.9635,0,-3.8994,-3.9057,-3.9088,-3.9133,-3.9204,-3.9219,-3.9289,-3.9314,-3.9352,-3.9402,-3.9402,-3.9449,-3.947,-3.952,-3.9534,-3.9606,-3.962,-3.9631,-3.9633,-3.963,-3.9628,-3.9647,-3.964,-3.9639,-3.9639,-3.9638,-3.9637,0,-3.9075,-3.9099,-3.9179,-3.9227,-3.9241,-3.9291,-3.9332,-3.9376,-3.9397,-3.946,-3.9476,-3.9508,-3.9568,-3.959,-3.9662,-3.9672,-3.9755,-3.9753,-3.9739,-3.9739,-3.9784,-3.9779,-3.993,-3.995,-3.9833,-3.9834,-3.9835,0,-3.9136,-3.9184,-3.9239,-3.9272,-3.9299,-3.9354,-3.9389,-3.9407,-3.9444,-3.95,-3.9537,-3.9596,-3.9644,-3.974,-3.9769,-3.9825,-3.9824,-3.9873,-3.9832,-3.9827,-3.9823,-3.9819,-3.9823,-3.988,-3.9881,-3.9882,-3.9883,0,-3.9241,-3.9251,-3.9301,-3.9357,-3.9399,-3.9443,-3.9487,-3.9514,-3.9539,-3.9581,-3.9642,-3.9679,-3.9754,-3.9813,-3.987,-3.9897,-3.9894,-3.9896,-3.9909,-3.9905,-3.9894,-3.9899,-3.9758,-3.9892,-3.9891,-3.989,-3.989,-3.9889,-3.9313,-3.9356,-3.9401,-3.9458,-3.9493,-3.9533,-3.9577,-3.9604,-3.9655,-3.9717,-3.9726,-3.9791,-3.9836,-3.9913,-3.9943,-3.9994,-3.9981,-4.0001,-4.0006,-4.001,-4.0012,-3.9888,-4.0005,-4.0005,-4.0005,-4.0005,-4.0004,0,-3.9416,-3.9446,-3.9498,-3.9559,-3.9604,-3.9599,-3.9647,-3.9685,-3.9742,-3.9785,-3.9833,-3.9904,-3.9961,-3.9997,-4.0055,-4.009,-4.009,-4.0104,-4.01,-4.0106,-4.0021,-4.0003,-4.0103,-4.0103,-4.0103,-4.0103,-4.0103,-4.0103,-3.9475,-3.9547,-3.9563,-3.9653,-3.9683,-3.9747,-3.9775,-3.9813,-3.9847,-3.9926,-3.9974,-3.9997,-4.0037,-4.0098,-4.0151,-4.016,-4.0181,-4.0196,-4.0204,-4.0123,-4.0112,-4.0103,-4.0085,-4.0201,-4.0201,-4.0284,-4.0285,-4.0285]},{"header":{"parameterUnit":"m.s-1","parameterCategory":1,"la1":30.2991,"la2":30.254,"lo1":-89.0895,"lo2":-89.0444,"dx":0.0017,"dy":0.0017,"nx":28,"ny":28,"refTime":"2022-12-29T15:00:00:Z","depth":0,"parameterNumber":3,"parameterNumberName":"V-component_of_WINDS"},"data":[0,0,0,0,0,0,0,0,0,0,0,0,0,0,0,0,0,0,0,0,0,0,0,0,0,0,0,0,0,0,0,0,0,0,0,0,0,0,0,0,0,0,0,0,0,0,0,0,0,0,0,0,0,0,0,0,0,0,1.6857,1.6858,0,1.6928,1.6929,1.693,1.7012,1.7013,1.7014,1.7015,1.7085,1.7086,1.7087,0,0,0,0,0,0,0,0,0,0,0,0,0,1.6791,1.6791,1.6857,1.6858,1.6859,1.6928,1.6929,1.693,1.7012,1.7013,1.7015,1.7016,1.7085,1.7086,1.7087,0,0,0,0,0,0,0,0,0,0,0,0,0,1.6836,1.6792,1.6857,1.6908,1.6913,1.6928,1.6929,1.693,1.7011,1.7013,1.7015,1.7017,1.7085,1.7086,1.7087,1.7056,0,0,1.709,1.7091,0,0,0,0,0,0,0,0,1.6833,1.6839,1.69,1.6905,1.6911,1.6963,1.6931,1.6972,1.7011,1.6974,1.7016,1.7018,1.7043,1.7048,1.7057,1.7059,1.7062,1.709,1.7091,1.7091,1.7092,0,0,0,0,0,0,0,1.683,1.6836,1.6885,1.69,1.6907,1.6927,1.6935,1.6939,1.6997,1.6977,1.6984,1.6991,1.7046,1.7055,1.7059,1.7063,1.709,1.7091,1.7092,1.7092,1.7047,1.7045,0,0,0,0,0,0,1.682,1.6833,1.6883,1.6887,1.6876,1.6927,1.6936,1.6944,1.6997,1.7007,1.6989,1.6994,1.7053,1.7058,1.7062,1.7032,1.7091,1.7092,1.7093,1.7049,1.7046,1.7044,0,0,0,0,0,0,1.6818,1.6823,1.688,1.6862,1.6871,1.6926,1.6934,1.6945,1.6954,1.7006,1.7017,1.6988,1.7054,1.706,1.7058,1.7035,1.7093,1.7094,1.7051,1.7048,1.7045,1.6969,0,0,0,0,0,0,1.6816,1.6822,1.6812,1.6861,1.6871,1.6875,1.6933,1.6945,1.6956,1.6964,1.7008,1.7017,1.7056,1.7056,1.7059,1.7037,1.7094,1.7053,1.7049,1.7046,1.6974,1.6964,1.6956,0,0,0,0,0,1.6813,1.6786,1.6811,1.6816,1.6859,1.6874,1.688,1.6926,1.6954,1.6944,1.6977,1.7016,1.7036,1.7055,1.7059,1.7037,1.7055,1.705,1.7046,1.6978,1.6966,1.6956,0,0,0,0,0,0,1.6731,1.6794,1.6821,1.681,1.6836,1.6888,1.6876,1.6911,1.6929,1.6936,1.6991,1.7001,1.6992,1.7014,1.7033,1.7012,1.7051,1.7048,1.6998,1.6987,1.6978,1.6974,1.7095,0,0,0,0,0,1.6712,1.6719,1.6773,1.6758,1.677,1.682,1.6828,1.6862,1.6891,1.6902,1.6936,1.6962,1.6975,1.6981,1.6996,1.6977,1.6989,1.6964,1.6955,1.6947,1.6944,1.6938,1.6929,1.7031,1.7031,1.7031,0,0,1.6672,1.6707,1.6708,1.6742,1.6767,1.6773,1.6829,1.6833,1.6838,1.6902,1.6903,1.6928,1.6961,1.6951,1.6948,1.6969,1.6918,1.6942,1.6935,1.6937,1.6933,1.6923,1.6914,1.7028,1.7028,1.7029,0,0,1.6604,1.663,1.6621,1.6645,1.6682,1.6716,1.6713,1.676,1.678,1.6781,1.683,1.6837,1.6856,1.6879,1.6893,1.6833,1.687,1.6836,1.6789,1.6782,1.6774,1.6767,1.6748,1.674,1.6832,1.6832,1.6832,0,1.655,1.6562,1.6612,1.6614,1.6628,1.6687,1.6679,1.6699,1.6738,1.6746,1.6769,1.6797,1.6823,1.682,1.6806,1.6814,1.6814,1.6832,1.6771,1.6765,1.6759,1.6742,1.6734,1.6828,1.6828,1.6829,1.6829,0,1.6495,1.6502,1.6491,1.6529,1.6541,1.6538,1.6587,1.6593,1.6626,1.6657,1.6659,1.6692,1.6715,1.6716,1.6747,1.6718,1.673,1.6761,1.6803,1.6745,1.6729,1.6723,1.6822,1.6823,1.6824,1.6825,0,0,1.6378,1.6444,1.6439,1.6458,1.6503,1.651,1.6509,1.6533,1.6538,1.6562,1.6564,1.658,1.661,1.6625,1.6659,1.6653,1.6606,1.6685,1.6687,1.6671,1.6579,1.6557,1.6548,1.663,1.6629,1.6628,1.6577,0,1.6319,1.6324,1.6369,1.636,1.6369,1.6425,1.6424,1.6452,1.6481,1.6492,1.6524,1.6536,1.6573,1.6583,1.6579,1.6613,1.6589,1.6616,1.6633,1.6633,1.6626,1.654,1.6516,1.6466,1.6571,1.657,1.6569,0,1.6252,1.6275,1.6267,1.6314,1.6319,1.6318,1.6344,1.6354,1.6386,1.6408,1.6425,1.6464,1.6467,1.6504,1.6509,1.6527,1.6536,1.6553,1.6553,1.6558,1.6599,1.6545,1.6451,1.6445,1.6559,1.656,1.6561,0,1.6171,1.6198,1.6198,1.6212,1.6266,1.6264,1.6286,1.632,1.6332,1.6355,1.6363,1.6385,1.6397,1.6413,1.6456,1.6479,1.6457,1.6497,1.6476,1.6475,1.647,1.647,1.6379,1.6471,1.6472,1.6472,1.6472,0,1.6102,1.6096,1.6163,1.6163,1.6158,1.6209,1.6202,1.623,1.626,1.6266,1.6314,1.6319,1.6375,1.6386,1.6419,1.642,1.6424,1.6442,1.6452,1.6439,1.6437,1.6448,1.6453,1.647,1.647,1.6471,1.6471,0,1.6012,1.6056,1.606,1.6111,1.6123,1.6117,1.6161,1.6163,1.6195,1.6203,1.6207,1.6257,1.6273,1.6317,1.6343,1.6366,1.6357,1.6373,1.6347,1.6354,1.6331,1.6333,1.6245,1.6237,1.6332,1.6331,1.633,0,1.5966,1.5963,1.6014,1.6022,1.6043,1.6055,1.6068,1.6118,1.613,1.6167,1.6164,1.6184,1.6203,1.6225,1.6264,1.6284,1.6303,1.627,1.6306,1.6295,1.6305,1.6306,1.6307,1.6263,1.6262,1.6261,1.626,0,1.5882,1.5904,1.5922,1.5947,1.5961,1.5983,1.6007,1.6011,1.6067,1.6078,1.6095,1.611,1.6137,1.6157,1.6184,1.6206,1.6243,1.6248,1.6245,1.6234,1.622,1.623,1.6329,1.6251,1.6251,1.6252,1.6253,1.6253,1.5815,1.5815,1.5852,1.587,1.5894,1.5916,1.5921,1.5954,1.597,1.5998,1.6025,1.604,1.6073,1.6113,1.6133,1.6145,1.6164,1.6159,1.6158,1.6156,1.6152,1.6216,1.615,1.615,1.615,1.6151,1.6151,0,1.5735,1.5762,1.5777,1.5811,1.5825,1.5859,1.5888,1.5897,1.591,1.5938,1.5956,1.5976,1.5996,1.6036,1.6059,1.6061,1.6078,1.6065,1.6067,1.6072,1.6132,1.6134,1.6051,1.6051,1.6051,1.6051,1.6051,1.6051,1.5696,1.57,1.5726,1.5742,1.5768,1.5784,1.5798,1.5819,1.5842,1.5863,1.588,1.5906,1.5939,1.5965,1.5984,1.5996,1.6003,1.5985,1.6002,1.6058,1.6067,1.6076,1.6079,1.5985,1.5985,1.5941,1.5941,1.594]}]]